sat.trackr.live / text

‹ back to catalog

STARLINK-35251

NORAD 65604 · 2025-207N

PAYLOAD ACTIVE UNKNOWN

§ Identity

Operator
Country
US
Launch date
2025-09-13
Launch site
AFWTR
Launch vehicle
Mass (kg)
RCS (m²)

Purposes: comms

External: N2YO · Heavens-Above · Gunter

§ Orbital elements

Epoch: 2026-05-25T03:15:46.082592Z

Period
95.64 min
Inclination
97.4525°
Eccentricity
0.0001616
Mean motion
15.05637253 rev/d
Perigee alt
548.4 km
Apogee alt
550.7 km
Semi-major
6,927.7 km
B*
-3.4137e-4
RAAN
213.6394°
Arg perigee
134.4723°
Mean anomaly
225.6637°
Rev number
3,976

§ Raw data

STARLINK-352511 65604U 25207N   26145.13595003 -.00004979  00000+0 -34137-3 0  99922 65604  97.4525 213.6394 0001616 134.4723 225.6637 15.05637253 39764

JSON: /api/v1/satellites/65604 · /tle

For live sub-satellite position, see the globe view (requires WebGL).

§ Visibility from observer

Set your observer location to see the next 7 days of passes ≥ 10°. The values pass through the URL so the page stays shareable.

No JS? Fill the form by hand. The geolocation button needs JavaScript.